Wind_Speed
21 20 18 16 12 10 8 6 5 4 4 5 5 5 7 7 7 8 9 9 9 9 9 10 11 12 12 12 13 13 12 13 12 12 12 12 12 12 12 12 12 12
23 22 21 19 15 13 12 9 7 6 6 6 6 6 7 8 8 8 8 8 8 7 7 7 8 9 10 10 10 10 10 10 10 10 10 10 10 10 10 10 10 11
24 24 23 21 18 17 15 12 9 9 9 8 8 8 9 9 9 8 8 8 7 7 6 5 6 6 7 9 9 9 9 8 8 8 8 8 8 8 8 9 9 9
25 24 24 23 21 20 17 14 12 11 11 10 10 10 10 10 10 9 8 8 7 6 5 4 3 4 5 7 8 9 8 8 7 7 7 8 7 6 7 7 7 7
24 25 25 25 24 22 19 16 14 13 14 12 11 11 11 11 11 10 9 8 7 6 4 3 2 2 4 6 8 9 9 8 8 7 7 7 6 5 6 6 5 6
24 25 25 25 25 23 20 18 16 16 16 14 13 13 12 12 12 11 10 9 8 6 5 3 2 1 3 6 7 8 9 9 8 8 7 7 6 6 6 5 5 5
24 24 24 25 25 24 22 20 18 18 18 16 14 14 14 13 13 12 12 11 10 8 6 5 3 0 3 5 6 7 8 8 8 8 7 7 7 6 6 6 6 5
24 23 24 25 25 25 23 22 20 20 20 18 16 15 15 14 14 13 13 12 11 9 8 7 5 2 1 4 5 6 7 7 7 7 7 7 6 6 6 6 6 6
26 25 24 24 26 26 25 24 22 22 21 20 18 16 16 15 15 14 14 13 12 10 9 8 6 4 1 2 4 5 6 6 6 7 6 7 6 6 6 6 7 6
27 26 25 25 26 27 26 25 24 23 22 21 20 18 17 16 16 15 14 13 12 11 11 10 8 6 3 2 3 5 6 6 6 6 6 6 6 6 6 6 7 7
29 27 26 25 26 26 27 26 25 25 23 22 21 20 19 18 17 16 15 14 13 13 13 12 10 7 5 4 3 4 5 6 6 6 6 6 6 6 6 6 7 7
31 28 27 26 26 26 27 27 27 26 25 23 23 22 21 20 19 18 17 16 15 14 14 13 11 9 7 6 5 5 5 5 6 6 6 5 5 6 6 6 7 7
32 30 28 27 27 26 26 27 27 27 26 25 24 24 23 22 21 20 19 18 17 16 15 15 13 11 9 7 7 7 7 7 6 6 6 6 6 6 6 6 7 7
33 31 28 27 28 28 28 28 28 28 27 26 26 25 25 24 23 22 21 20 19 18 17 16 15 13 11 9 9 8 8 8 8 7 7 7 6 6 6 6 6 7
33 31 29 28 28 29 29 30 30 29 29 28 27 26 25 25 25 24 23 22 22 20 19 18 16 14 12 11 10 10 10 10 10 9 9 8 7 7 7 7 7 6
31 31 30 28 28 28 30 30 30 31 30 29 29 27 26 25 25 25 24 24 23 22 21 19 18 16 14 13 12 12 12 12 12 11 11 10 9 8 8 7 7 7
29 30 30 29 27 27 29 31 31 32 32 32 31 30 28 27 27 26 26 25 25 24 23 22 20 19 17 15 15 14 14 14 14 14 13 12 11 10 9 8 7 7
28 28 29 28 27 27 27 29 31 32 33 33 33 33 31 30 29 29 28 27 27 26 26 25 23 22 20 18 17 17 16 16 16 16 15 14 13 11 10 9 8 8
29 29 30 28 27 27 26 27 30 33 34 35 35 34 34 33 33 32 31 30 29 29 29 27 26 25 23 21 20 19 19 18 18 18 18 17 15 13 12 11 10 9
32 33 33 29 27 28 26 26 29 32 35 36 36 35 36 37 36 35 34 33 32 32 32 30 29 28 26 24 22 22 21 21 21 21 20 19 17 15 13 12 11 10
34 33 34 32 30 30 29 28 29 32 34 36 38 38 38 38 38 37 36 36 35 34 34 32 31 30 29 26 25 24 24 23 23 23 22 21 18 16 14 13 12 11
39 37 36 36 37 38 36 34 33 33 35 36 38 40 41 41 40 39 38 37 37 36 35 34 33 32 30 28 26 26 25 25 25 24 22 21 18 16 15 14 13 12
45 43 42 41 42 44 44 42 41 38 37 36 38 40 42 44 44 43 41 40 39 38 37 36 34 33 32 30 28 27 27 27 26 24 21 19 18 16 15 14 13 12
50 48 47 44 44 47 48 47 46 43 41 38 37 40 42 45 46 46 45 43 42 41 40 38 36 35 34 32 30 29 29 29 27 24 21 19 18 16 15 14 14 13
54 52 51 48 46 47 48 48 47 45 42 39 38 39 41 43 46 47 46 45 44 43 41 40 39 37 35 34 32 31 31 30 29 26 23 20 18 16 15 15 14 14
56 54 53 51 49 47 47 48 48 46 42 39 38 39 40 43 46 47 46 46 45 43 41 40 40 37 36 35 34 32 31 30 29 28 25 21 17 16 16 17 16 15
Wind_Direction
227 228 232 239 247 255 264 274 273 234 191 183 177 161 157 159 152 142 134 127 123 115 108 102 96 91 85 78 74 72 72 72 73 73 74 76 77 76 75 73 71 70
232 231 233 237 242 249 254 259 257 235 210 194 184 174 169 171 167 157 147 139 133 125 115 108 99 91 85 79 72 68 66 66 68 69 70 72 75 76 77 75 73 71
238 235 234 236 240 245 249 248 242 229 215 202 193 185 180 179 177 172 164 154 146 138 128 118 105 92 83 76 68 64 61 59 61 64 65 67 67 71 75 74 73 73
241 238 235 235 237 243 246 240 232 226 215 205 198 192 187 186 185 183 179 171 163 155 149 141 119 94 76 66 59 55 53 49 49 52 59 60 56 57 65 69 70 70
242 240 237 234 235 240 240 231 224 222 215 207 200 195 192 190 190 189 188 185 181 177 175 172 149 91 61 53 48 44 41 39 35 34 41 46 42 41 47 53 58 61
240 238 237 234 231 232 230 223 220 219 214 209 202 198 197 194 192 193 194 193 193 191 193 197 198 55 38 37 40 39 36 33 29 26 27 28 26 30 30 26 33 43
238 236 235 233 228 223 218 216 218 218 213 209 204 200 199 197 194 195 196 199 200 200 202 206 209 259 22 24 28 34 34 33 28 22 22 21 19 21 18 10 14 22
236 233 232 233 229 219 211 210 214 216 213 209 206 203 203 200 198 198 200 202 204 206 210 212 213 219 354 12 14 19 24 28 25 20 18 17 17 15 11 6 7 7
234 230 227 229 229 220 210 208 210 215 214 210 207 206 204 202 201 203 204 206 209 211 215 217 219 222 258 340 356 3 7 14 17 16 12 10 11 12 8 3 1 358
233 230 225 222 224 220 212 208 209 212 213 211 209 208 206 204 205 206 208 210 213 216 220 222 222 225 242 290 327 344 351 357 0 5 6 2 1 4 1 358 355 352
234 232 227 220 219 220 214 209 209 212 214 212 212 211 209 207 207 208 210 213 216 219 223 225 226 230 239 264 297 318 330 339 341 345 351 351 350 352 352 350 347 345
235 233 230 222 217 217 216 212 210 212 215 215 214 213 212 210 209 209 211 214 218 221 223 226 227 230 238 253 274 292 305 315 320 324 328 331 334 337 339 341 341 340
236 234 234 228 218 214 214 214 213 213 216 217 218 217 215 213 212 211 213 216 219 222 224 226 228 232 238 247 260 275 286 293 299 305 307 310 316 321 324 329 332 335
237 236 236 232 225 217 213 213 214 215 216 218 220 221 219 218 216 215 215 218 221 223 225 228 231 234 239 246 255 266 276 282 286 288 291 293 298 304 309 315 320 326
237 239 239 236 231 224 218 213 212 214 216 219 222 224 223 223 222 220 220 221 224 227 229 232 235 238 241 246 253 261 268 273 276 278 279 279 282 287 293 300 306 312
235 238 240 240 237 232 227 221 215 213 214 217 220 223 225 226 227 226 225 226 229 232 233 236 238 240 243 247 252 257 262 265 269 270 270 270 270 273 277 283 292 298
234 236 238 240 241 239 235 231 225 219 216 215 217 219 222 225 227 228 228 229 232 234 237 239 241 242 243 245 249 253 256 260 263 265 265 264 263 265 267 271 277 283
234 236 238 239 243 245 244 241 238 232 225 220 218 217 218 221 224 226 227 228 231 234 236 238 240 241 241 241 244 248 250 254 258 260 262 261 259 258 260 263 266 271
235 238 239 239 242 246 247 247 246 243 238 231 225 221 219 220 221 223 224 225 227 231 233 235 236 237 236 234 236 240 243 246 251 254 256 257 255 253 253 256 258 260
228 236 240 240 243 248 250 250 251 251 248 243 237 231 227 225 224 223 223 223 225 228 231 232 233 234 233 228 228 232 235 238 244 247 249 250 250 249 249 250 253 256
212 223 233 238 240 243 246 249 252 255 255 251 246 240 236 234 231 229 227 226 227 228 231 232 232 233 232 227 224 227 229 232 236 239 241 243 244 245 246 247 250 255
204 210 220 227 230 232 233 234 239 247 254 255 252 246 242 240 238 235 234 232 231 230 231 232 232 233 233 229 225 226 227 229 233 235 235 237 238 238 240 243 247 253
206 208 213 218 223 225 224 223 224 231 240 248 253 252 246 243 241 239 237 235 234 233 232 232 231 231 232 231 227 226 228 230 232 234 234 233 232 232 234 237 243 248
209 210 212 216 221 223 222 221 220 221 225 232 243 251 251 248 245 243 240 238 236 234 233 231 230 228 228 228 226 225 227 230 232 235 235 233 231 229 230 234 238 242
209 210 212 216 220 223 224 224 222 220 221 222 231 245 253 253 250 247 244 241 239 237 233 231 229 226 225 225 224 223 225 228 231 234 234 233 231 229 229 232 234 238
212 212 213 216 220 222 225 227 226 223 221 221 226 238 249 255 254 250 246 243 241 239 235 232 229 226 224 225 224 224 225 227 229 232 232 229 228 229 231 233 233 234
Height
11027 11028 11029 11030 11030 11031 11032 11032 11033 11033 11034 11034 11034 11034 11035 11035 11035 11034 11034 11033 11033 11033 11032 11032 11031 11031 11031 11031 11030 11030 11029 11029 11028 11027 11026 11025 11024 11024 11023 11022 11022 11021
11025 11026 11027 11028 11029 11030 11031 11031 11032 11033 11033 11033 11034 11034 11034 11035 11035 11035 11034 11034 11033 11033 11033 11033 11032 11032 11032 11031 11031 11031 11030 11030 11029 11028 11027 11026 11025 11024 11023 11022 11022 11021
11024 11025 11025 11027 11028 11029 11029 11030 11031 11032 11032 11033 11033 11033 11034 11034 11035 11035 11034 11034 11034 11034 11034 11033 11033 11033 11032 11032 11032 11032 11031 11031 11030 11029 11027 11026 11025 11024 11024 11023 11022 11022
11022 11023 11024 11025 11026 11027 11028 11029 11030 11031 11032 11032 11033 11033 11033 11034 11034 11035 11035 11035 11034 11034 11034 11034 11034 11034 11033 11033 11032 11032 11032 11031 11030 11029 11028 11026 11026 11025 11024 11023 11023 11022
11021 11022 11023 11023 11024 11025 11027 11028 11029 11030 11031 11031 11032 11032 11033 11034 11034 11035 11035 11035 11035 11035 11035 11034 11034 11034 11034 11033 11033 11032 11032 11031 11030 11029 11028 11027 11026 11026 11025 11024 11023 11022
11020 11020 11021 11022 11022 11024 11025 11026 11027 11028 11029 11030 11031 11031 11032 11033 11034 11034 11035 11035 11035 11035 11035 11035 11035 11035 11035 11034 11033 11033 11032 11031 11031 11030 11029 11028 11027 11026 11025 11025 11024 11023
11018 11019 11019 11020 11021 11022 11023 11024 11026 11027 11028 11029 11030 11031 11031 11032 11033 11034 11034 11035 11035 11035 11035 11035 11035 11035 11035 11035 11034 11033 11032 11032 11031 11031 11030 11029 11028 11027 11026 11026 11024 11023
11016 11017 11018 11018 11019 11020 11021 11022 11024 11026 11027 11028 11029 11030 11031 11032 11032 11033 11034 11034 11034 11035 11035 11035 11036 11036 11035 11035 11034 11034 11033 11032 11032 11031 11030 11029 11028 11028 11027 11026 11025 11024
11014 11014 11015 11016 11018 11019 11019 11020 11022 11024 11025 11026 11028 11029 11030 11031 11032 11032 11033 11033 11034 11034 11035 11035 11035 11035 11036 11035 11034 11034 11033 11032 11032 11031 11030 11029 11028 11028 11027 11027 11026 11025
11013 11013 11013 11014 11015 11017 11018 11019 11020 11022 11024 11025 11026 11028 11029 11030 11031 11031 11032 11033 11033 11034 11034 11034 11035 11035 11035 11035 11034 11034 11033 11032 11032 11031 11030 11029 11029 11028 11027 11027 11026 11025
11012 11012 11012 11012 11013 11015 11016 11017 11018 11020 11022 11024 11025 11026 11028 11029 11030 11030 11031 11032 11032 11033 11033 11033 11034 11034 11035 11034 11034 11033 11032 11032 11031 11031 11030 11029 11029 11028 11027 11027 11027 11026
11011 11011 11011 11011 11012 11013 11014 11015 11017 11018 11020 11022 11024 11025 11026 11027 11028 11029 11030 11031 11031 11032 11032 11032 11033 11033 11034 11034 11033 11033 11032 11032 11031 11030 11030 11029 11028 11028 11027 11027 11026 11026
11009 11010 11011 11011 11011 11012 11012 11014 11015 11016 11019 11020 11022 11023 11024 11026 11027 11028 11029 11029 11030 11030 11031 11031 11032 11032 11033 11033 11033 11032 11032 11031 11030 11030 11029 11028 11028 11027 11027 11026 11026 11026
11008 11010 11011 11011 11011 11011 11011 11011 11013 11014 11016 11018 11020 11021 11022 11024 11025 11026 11027 11028 11028 11029 11029 11030 11030 11031 11032 11032 11032 11031 11031 11030 11030 11029 11029 11028 11027 11027 11026 11026 11025 11025
11007 11009 11010 11010 11011 11010 11010 11010 11011 11012 11014 11016 11018 11019 11021 11022 11023 11024 11025 11026 11026 11027 11028 11028 11029 11030 11030 11031 11031 11030 11030 11029 11029 11028 11028 11027 11027 11026 11026 11025 11025 11025
11005 11007 11009 11010 11011 11011 11011 11011 11010 11010 11012 11013 11015 11017 11018 11020 11021 11022 11023 11024 11025 11025 11026 11027 11028 11028 11029 11029 11029 11029 11028 11028 11027 11027 11027 11026 11026 11026 11025 11025 11024 11024
11002 11005 11007 11009 11010 11011 11011 11011 11011 11011 11010 11011 11012 11013 11015 11017 11018 11020 11021 11022 11022 11023 11024 11025 11025 11026 11027 11027 11027 11027 11027 11026 11026 11025 11025 11025 11025 11024 11024 11024 11024 11024
11000 11002 11005 11007 11008 11010 11011 11011 11012 11012 11011 11010 11010 11010 11012 11013 11015 11016 11017 11018 11019 11020 11020 11021 11022 11023 11024 11024 11024 11025 11024 11024 11024 11024 11023 11023 11023 11023 11023 11023 11023 11023
11001 11003 11003 11004 11006 11007 11009 11010 11011 11011 11011 11010 11010 11010 11010 11010 11011 11012 11013 11014 11015 11016 11016 11017 11018 11019 11019 11020 11021 11021 11021 11021 11021 11021 11021 11021 11021 11021 11022 11022 11022 11022
10997 11000 11000 11002 11004 11005 11006 11007 11008 11009 11009 11010 11011 11011 11009 11008 11008 11009 11010 11011 11012 11012 11013 11013 11014 11015 11015 11016 11017 11017 11018 11018 11018 11018 11018 11018 11019 11019 11020 11020 11021 11021
10985 10990 10993 10996 10998 11000 11002 11003 11005 11006 11007 11008 11009 11010 11009 11008 11008 11008 11009 11009 11009 11010 11010 11011 11011 11012 11012 11012 11013 11014 11014 11015 11014 11014 11015 11015 11016 11017 11018 11019 11019 11019
10974 10977 10982 10986 10987 10989 10992 10995 10998 11001 11004 11005 11005 11006 11007 11006 11006 11007 11007 11007 11008 11008 11008 11008 11009 11010 11010 11010 11011 11012 11012 11012 11011 11011 11012 11013 11014 11015 11016 11017 11018 11018
10967 10968 10969 10972 10974 10976 10980 10983 10987 10991 10997 11000 11000 11002 11003 11002 11003 11004 11004 11004 11005 11006 11005 11005 11006 11007 11008 11008 11009 11010 11011 11010 11010 11011 11012 11012 11012 11013 11014 11015 11016 11017
10960 10962 10964 10965 10967 10968 10971 10974 10976 10980 10986 10991 10995 10997 10998 10998 10999 11000 11000 11001 11002 11002 11002 11002 11003 11004 11005 11005 11006 11007 11008 11008 11008 11010 11011 11012 11012 11013 11013 11014 11014 11015
10953 10957 10960 10963 10965 10966 10969 10972 10973 10975 10979 10983 10988 10992 10994 10994 10995 10996 10997 10997 10998 10998 10999 10999 11000 11001 11002 11002 11003 11004 11005 11005 11006 11007 11008 11010 11012 11013 11013 11013 11013 11014
10949 10952 10956 10959 10961 10964 10967 10970 10972 10974 10976 10978 10981 10987 10991 10992 10991 10991 10992 10993 10994 10995 10996 10997 10997 10998 10999 10999 11001 11002 11002 11003 11003 11004 11005 11007 11010 11012 11012 11012 11012 11012